Weather History for KBUF - October, 2012

Change the Weather History Date:

Sunday, October 21, 2012

  Actual Average Record
Temperature  
Mean Temperature 51 °F 49 °F  
Max Temperature 56 °F 57 °F 81 °F (1894)
Min Temperature 45 °F 41 °F 27 °F (1952)
Degree Days  
Heating Degree Days 14 16  
Month to date heating degree days 256 266  
Since 1 July heating degree days 381 428  
Cooling Degree Days 0 0  
Month to date cooling degree days 1 0  
Year to date cooling degree days 872 540  
Moisture  
Dew Point 45 °F    
Average Humidity 79    
Maximum Humidity 92    
Minimum Humidity 66    
Precipitation  
Precipitation 0.00 in 0.10 in 0.75 in (1995)
Month to date precipitation 2.93 2.42  
Year to date precipitation 24.06 31.48  
Snow  
Snow 0.00 in 0.00 in 1.50 in (1925)
Month to date snowfall 0.0 0.4  
Since 1 July snowfall 0.0 0.4  
Since 1 September snowfall 0.0 0.4  
Snow Depth 0.00 in    
Sea Level Pressure  
Sea Level Pressure 30.00 in    
Wind  
Wind Speed 12 mph (WSW)    
Max Wind Speed 23 mph    
Max Gust Speed 30 mph    
Visibility 10 miles    
Events      
T = Trace of Precipitation, MM = Missing Value Source: NWS Daily Summary

Daily Weather History Graph

Daily Weather History Graph

Search for Another Location

Airport or City:

Trip Planner

Search our weather history database for the weather conditions in past years. The results will help you decide how hot, cold, wet, or windy it might be!

Date:

Astronomy

Oct. 21, 2012 Rise Set
Actual Time 7:36 AM EDT 6:22 PM EDT
Civil Twilight 7:07 AM EDT 6:50 PM EDT
Nautical Twilight 6:34 AM EDT 7:23 PM EDT
Astronomical Twilight 6:01 AM EDT 7:56 PM EDT
Moon 1:58 PM EDT (10/21) No Moon Set
Length of Visible Light 11h 43m
Length of Day
10h 45m
Waxing Crescent, 45% of the Moon is Illuminated
Oct 21
Waxing Crescent
Oct 21
First Quarter
Oct 29
Full
Nov 6
Last Quarter
Nov 13
New

Hourly Weather History & Observations

Time (EDT) Temp. Windchill Dew Point Humidity Pressure Visibility Wind Dir Wind Speed Gust Speed Precip Events Conditions
12:54 AM 46.9 °F - 42.1 °F 83% 29.84 in 10.0 mi West 10.4 mph - N/A   Mostly Cloudy
1:54 AM 48.9 °F - 43.0 °F 80% 29.85 in 10.0 mi West 16.1 mph - N/A   Mostly Cloudy
2:54 AM 48.0 °F - 43.0 °F 83% 29.87 in 10.0 mi West 11.5 mph - N/A   Mostly Cloudy
3:54 AM 46.9 °F - 43.0 °F 86% 29.90 in 10.0 mi West 9.2 mph - N/A   Mostly Cloudy
4:54 AM 46.9 °F - 43.0 °F 86% 29.92 in 10.0 mi West 9.2 mph - N/A   Mostly Cloudy
5:54 AM 46.9 °F - 43.0 °F 86% 29.94 in 10.0 mi WSW 10.4 mph - N/A   Mostly Cloudy
6:54 AM 46.0 °F 41.9 °F 42.1 °F 86% 29.96 in 10.0 mi WSW 8.1 mph - N/A   Scattered Clouds
7:54 AM 45.0 °F 41.2 °F 42.1 °F 90% 29.97 in 10.0 mi WSW 6.9 mph - N/A   Scattered Clouds
8:54 AM 48.0 °F - 43.0 °F 83% 29.99 in 10.0 mi WSW 5.8 mph - N/A   Scattered Clouds
9:54 AM 52.0 °F - 43.0 °F 71% 30.00 in 10.0 mi WSW 12.7 mph - N/A   Scattered Clouds
10:54 AM 54.0 °F - 44.1 °F 69% 30.02 in 10.0 mi WSW 13.8 mph - N/A   Scattered Clouds
11:54 AM 55.0 °F - 46.0 °F 72% 30.03 in 10.0 mi SW 11.5 mph - N/A   Scattered Clouds
12:54 PM 55.0 °F - 46.0 °F 72% 30.03 in 10.0 mi SW 15.0 mph - N/A   Scattered Clouds
1:54 PM 55.0 °F - 46.0 °F 72% 30.02 in 10.0 mi WSW 16.1 mph - N/A   Scattered Clouds
2:54 PM 55.0 °F - 45.0 °F 69% 30.02 in 10.0 mi WSW 20.7 mph 29.9 mph N/A   Scattered Clouds
3:54 PM 55.9 °F - 46.0 °F 69% 30.03 in 10.0 mi SW 20.7 mph 26.5 mph N/A   Scattered Clouds
4:54 PM 55.0 °F - 46.0 °F 72% 30.04 in 10.0 mi WSW 19.6 mph 28.8 mph N/A   Scattered Clouds
5:54 PM 54.0 °F - 46.0 °F 75% 30.05 in 10.0 mi WSW 13.8 mph 21.9 mph N/A   Scattered Clouds
6:54 PM 53.1 °F - 46.9 °F 80% 30.07 in 10.0 mi WSW 10.4 mph - N/A   Scattered Clouds
7:54 PM 53.1 °F - 46.9 °F 80% 30.08 in 10.0 mi WSW 10.4 mph - N/A   Scattered Clouds
8:54 PM 53.1 °F - 46.9 °F 80% 30.09 in 10.0 mi WSW 11.5 mph - N/A   Scattered Clouds
9:54 PM 52.0 °F - 46.0 °F 80% 30.09 in 10.0 mi WSW 9.2 mph - N/A   Scattered Clouds
10:54 PM 51.1 °F - 46.0 °F 83% 30.10 in 10.0 mi West 5.8 mph - N/A   Scattered Clouds
11:54 PM 50.0 °F - 45.0 °F 83% 30.10 in 10.0 mi WSW 5.8 mph - N/A   Scattered Clouds